Showing default

IRIDIUM 151, 43074

Orbit data source: Space-Track

IRIDIUM 151, 43074 is a payload satellite owned by Iridium (US) in LEO that was launched on Sat, 23 Dec 2017 UTC via an FALCON 9 launch vehicle from the Air Force Western Test Range (AFWTR). Payload-class satellites include a variety of spacecraft equipped with specific instruments for various scientific and technological missions. These include communications satellites like Starlink; space stations such as the ISS; scientific satellites like the Hubble; Earth observation satellites from companies like Planet Labs, Umbra, and HawkEye 360; GPS; miniature CubeSats for education and research; and military/defense satellites.

Loading next visibility...
Identifier
43074, 2017-083E
Orbit
LEO
Country
Flag of USUS
Related business
Manufacturer
OATK SSG Gilbert
Mission
Operational Commercial Communications
Bus & Motor
ELITEBUS, Unknown motor
Mass
860 kg wet, 700 kg dry
Launch date (UTC)
2017-12-23 (8 years ago)
Launch vehicle
FALCON 9
Launch site
Air Force Western Test Range (AFWTR)
Object type
Payload
Rocket body
Debris
Shape & HBR
Trap Box + 2 Pan, 4.8 m
Radar Cross Section
10.154 m², Large (>1 m²)

Expand to show TLE details & history
Last TLE update: 14 hours ago

TLE from 14 hours ago
0 IRIDIUM 151
1 43074U 17083E   26033.50466419  .00000069  00000-0  17505-4 0  9993
2 43074  86.3965  18.3342 0002161  87.0512 273.0931 14.34216958424830
Epoch: 2026-02-02T12:06Z
TLE epoch observation values (Epoch: 2026-02-02T12:06:42.986Z)
Latitude
-0.00001°
Longitude
63.9561°
Altitude
780.638 km
Speed
7.464 km/s
True Right ascension
01h 13m 20s
True Declination
0° 00' 00"
Sunlit
Object was in daylight at epoch
Visualization orbit readout
Latitude
Unknown
Longitude
Unknown
Altitude
Unknown
Speed
Unknown
Apparent Right ascension
Unknown
Apparent Declination
Unknown
Sunlit
N/A
Visualization observer readout
Local Sidereal Time
03:32:38
Azimuth
Unknown
Elevation
Unknown
Doppler factor
Unknown
Orbital elements
Apogee altitude
776.18 km
Perigee altitude
773.089 km
Semi-major axis
7,152.771 km
Eccentricity
0.00022
Inclination
86.3965°
RAAN
18.3342°
Arg. of periapsis
87.0512°
True anomaly
273.06837°
Mean anomaly
273.0931°
Eccentric anomaly
273.08074°
Mean motion
3.58783 °/min
Orbital period
100.34 mins
BSTAR
0.000017505
Loading maneuver chart data...
Computing Atmospheric mass density...
Loading historical data...
Loading historical data...
Loading historical data...
Loading historical data...
Loading historical data...
Loading historical data...
Loading historical data...

Documentation

Showing up to 5 results
|